This is the latest recevied weather packets stored in our database for station/object OK1TOM-6. If no packets are shown the sender has not sent any weather packets the latest 10 day(s).
| Time | Temp. | Humidity | Pressure | Rain* | Wind** | Luminosity | Snow |
|---|---|---|---|---|---|---|---|
| 1777544139 | 9.44° C | 34% | 1032.5 hPa | 0 mm | - | - | - |
| 1777543535 | 9.44° C | 35% | 1032.5 hPa | 0 mm | - | - | - |
| 1777542932 | 9.44° C | 35% | 1032.4 hPa | 0 mm | - | - | - |
| 1777542329 | 8.89° C | 37% | 1032.4 hPa | 0 mm | - | - | - |
| 1777541725 | 8.89° C | 34% | 1032.5 hPa | 0 mm | - | - | - |
| 1777541122 | 8.89° C | 34% | 1032.5 hPa | 0 mm | - | - | - |
| 1777540518 | 8.89° C | 35% | 1032.6 hPa | 0 mm | - | - | - |
| 1777539975 | 8.33° C | 35% | 1032.9 hPa | 0 mm | - | - | - |
| 1777539371 | 8.33° C | 37% | 1032.9 hPa | 0 mm | - | - | - |
| 1777538768 | 8.33° C | 36% | 1032.9 hPa | 0 mm | - | - | - |
| 1777538164 | 7.78° C | 36% | 1032.9 hPa | 0 mm | - | - | - |
| 1777537561 | 7.22° C | 37% | 1033 hPa | 0 mm | - | - | - |
| 1777536958 | 6.67° C | 38% | 1032.9 hPa | 0 mm | - | - | - |
| 1777536354 | 6.67° C | 39% | 1032.9 hPa | 0 mm | - | - | - |
| 1777535751 | 6.67° C | 39% | 1032.9 hPa | 0 mm | - | - | - |
| 1777535147 | 6.11° C | 39% | 1032.8 hPa | 0 mm | - | - | - |
| 1777534544 | 6.11° C | 40% | 1032.8 hPa | 0 mm | - | - | - |
| 1777533940 | 5.56° C | 42% | 1032.8 hPa | 0 mm | - | - | - |
| 1777533337 | 5.56° C | 43% | 1032.8 hPa | 0 mm | - | - | - |
| 1777532734 | 5° C | 43% | 1032.8 hPa | 0 mm | - | - | - |
| 1777532130 | 5° C | 44% | 1032.6 hPa | 0 mm | - | - | - |
| 1777531527 | 4.44° C | 45% | 1032.6 hPa | 0 mm | - | - | - |
| 1777530923 | 5° C | 44% | 1032.6 hPa | 0 mm | - | - | - |
| 1777530320 | 5° C | 44% | 1032.4 hPa | 0 mm | - | - | - |
| 1777529717 | 4.44° C | 45% | 1032.4 hPa | 0 mm | - | - | - |
* Rain latest hour (hover to see other rain measurements)
** Current wind speed in m/s (hover to see current wind gust speed)